Vorticity
4 5 5 5 13 22 4 2 2 1 1 1 3 3 2 1 -0 0 4 13 2 2 6 5 2 5 6 7 9 6 5 5 6 5 5 5 4 3 2 3 3 3 3
4 2 3 4 4 8 21 12 1 2 2 1 1 0 2 2 4 2 0 1 10 7 1 5 6 1 3 7 7 8 7 5 5 5 5 5 5 5 4 3 3 2 2
2 2 1 2 4 4 6 10 23 11 1 2 2 2 1 -1 0 1 3 2 -0 2 12 3 1 8 2 1 5 6 7 6 6 5 4 5 5 5 4 5 3 3 3
5 4 3 3 2 2 4 5 6 10 23 18 3 1 2 2 1 -1 1 0 3 2 1 4 9 -0 8 4 1 3 5 5 5 6 6 5 5 4 4 4 4 4 3
3 3 4 3 3 3 2 -0 2 3 1 5 17 19 12 6 6 3 2 1 0 1 2 3 2 6 5 5 7 2 1 3 4 4 4 5 5 4 5 4 4 4 4
2 2 2 3 4 6 4 4 2 2 3 4 5 4 9 11 12 10 9 6 3 1 2 2 2 3 3 9 1 9 4 1 2 3 4 4 4 4 4 4 4 4 4
3 2 2 2 2 4 6 4 4 2 1 3 4 4 4 3 6 8 14 14 11 7 4 1 2 3 4 3 3 6 3 8 5 2 2 2 3 3 4 3 3 3 3
1 2 2 2 2 2 4 3 2 6 6 3 1 3 6 6 6 4 -1 4 14 15 10 5 3 1 2 3 3 3 5 6 5 8 5 4 3 3 2 2 2 2 2
2 2 2 2 2 3 3 3 2 2 4 5 5 2 1 2 4 4 7 6 3 6 13 17 9 5 5 4 5 4 4 3 6 5 5 8 6 5 4 3 3 3 3
5 4 4 4 4 4 5 4 5 4 4 5 4 4 6 2 1 2 3 4 5 6 8 10 14 10 7 5 4 3 4 4 4 4 5 4 4 7 9 8 6 5 5
6 5 5 6 5 6 5 5 5 6 7 6 5 5 4 5 4 2 0 3 5 2 5 6 7 14 15 8 0 2 4 3 4 3 3 4 5 5 5 3 3 4 5
15 15 16 15 14 12 11 9 7 5 4 6 7 4 6 6 6 5 4 2 0 3 6 3 5 3 6 13 16 15 9 3 1 2 3 4 3 4 4 4 5 4 4
13 13 12 13 16 16 16 16 14 13 11 9 6 6 6 5 5 6 6 5 4 1 0 2 3 4 6 5 3 10 11 13 13 10 5 4 4 4 3 4 4 3 3
4 3 4 4 4 5 5 6 9 12 14 16 13 10 9 5 5 5 5 6 6 5 3 1 1 3 3 2 4 5 6 9 8 10 13 10 5 1 1 2 -0 1 3
1 1 1 1 2 1 -0 2 2 2 3 5 8 12 17 17 10 5 7 6 4 6 5 5 4 2 2 3 5 4 4 4 3 5 6 10 15 19 19 18 17 17 16
2 1 1 2 2 3 3 3 3 2 3 4 3 2 2 5 15 20 11 5 5 7 6 6 4 4 3 1 1 1 3 2 2 4 4 4 2 3 3 5 5 7 9
6 7 7 6 6 5 5 5 4 4 3 3 3 3 4 3 2 0 8 22 11 6 4 6 7 7 4 3 4 3 2 1 6 5 1 2 3 2 5 1 3 3 7
4 4 4 4 4 4 3 2 3 4 4 3 3 2 2 3 4 5 4 2 6 19 9 5 4 6 5 5 5 4 4 5 3 2 4 6 6 3 2 2 2 5 7
4 4 5 5 5 5 6 6 5 5 5 6 6 5 5 5 6 5 5 5 4 2 8 17 8 5 4 5 4 6 7 5 5 0 2 0 1 7 7 6 8 6 7
4 4 3 2 3 4 6 9 9 8 8 9 10 8 6 6 5 6 6 6 5 4 3 2 8 13 11 8 6 4 6 5 5 4 4 4 8 7 1 1 3 6 7
14 16 18 17 14 12 14 14 13 12 10 8 8 8 8 8 8 7 6 6 5 6 5 4 3 3 5 11 10 8 6 7 4 9 11 9 5 10 12 9 7 5 2
10 10 9 10 9 11 10 9 8 5 3 2 2 2 3 2 3 4 4 5 6 5 5 6 5 3 3 3 6 9 9 9 2 7 3 5 4 11 4 11 0 0 3
12 10 8 8 7 5 2 1 2 5 16 27 30 34 31 30 25 12 -0 4 5 5 6 5 5 6 3 4 3 3 5 15 29 10 10 5 9 15 6 -17 17 8 14
3 2 2 6 16 29 40 45 39 17 13 -3 17 1 7 10 19 17 17 21 6 -0 6 7 7 1 9 6 4 -0 10 9 -10 32 7 2 -7 10 -3 -7 1 20 7
33 34 34 14 10 11 10 2 7 -1 9 10 9 16 23 16 21 20 20 16 16 20 9 0 9 11 8 -1 10 2 12 12 21 47 -40 21 6 -8 -13 8 32 1 -7
20 11 13 16 15 17 14 17 15 11 17 20 18 13 20 28 28 28 23 16 16 14 20 20 16 7 10 11 4 -2 -7 2 22 -30 -1 27 11 28 -15 33 -18 6 9
Height
5873 5873 5873 5874 5874 5874 5875 5876 5877 5878 5880 5881 5881 5882 5882 5883 5883 5884 5884 5885 5884 5884 5884 5884 5884 5884 5884 5883 5883 5882 5882 5882 5882 5882 5881 5881 5880 5880 5879 5879 5878 5877 5877
5872 5873 5873 5873 5873 5872 5872 5874 5874 5876 5878 5879 5880 5881 5881 5881 5882 5883 5884 5884 5884 5883 5883 5883 5884 5883 5883 5883 5883 5882 5882 5881 5881 5881 5881 5881 5881 5880 5879 5879 5878 5878 5877
5870 5871 5872 5872 5872 5872 5872 5872 5872 5873 5875 5876 5878 5879 5880 5880 5881 5881 5882 5882 5882 5882 5882 5882 5882 5882 5882 5882 5882 5881 5881 5880 5880 5880 5880 5880 5880 5880 5879 5879 5878 5878 5877
5868 5869 5870 5870 5871 5871 5871 5871 5871 5872 5872 5873 5874 5875 5876 5877 5878 5879 5879 5880 5880 5880 5880 5880 5880 5880 5880 5881 5880 5880 5879 5879 5879 5879 5879 5879 5879 5879 5878 5878 5878 5877 5876
5866 5867 5868 5868 5869 5869 5870 5870 5870 5870 5871 5870 5871 5871 5872 5873 5874 5875 5876 5877 5877 5877 5877 5878 5878 5878 5878 5878 5878 5878 5878 5878 5878 5877 5877 5877 5877 5877 5877 5876 5876 5876 5875
5863 5864 5865 5866 5866 5867 5868 5868 5868 5868 5868 5868 5869 5869 5869 5869 5870 5870 5871 5872 5873 5873 5874 5874 5874 5875 5875 5876 5876 5875 5875 5876 5876 5875 5875 5875 5875 5875 5874 5874 5873 5873 5873
5860 5860 5861 5862 5863 5864 5864 5865 5865 5865 5866 5866 5866 5866 5866 5866 5866 5866 5866 5866 5867 5869 5869 5870 5870 5871 5871 5872 5872 5872 5872 5872 5873 5872 5872 5872 5872 5872 5872 5871 5871 5870 5870
5855 5856 5857 5857 5858 5859 5860 5860 5861 5862 5862 5863 5863 5863 5863 5862 5863 5863 5863 5863 5863 5863 5864 5865 5866 5867 5867 5868 5868 5868 5868 5868 5869 5869 5868 5868 5868 5868 5868 5868 5867 5867 5866
5849 5850 5851 5853 5853 5854 5855 5856 5857 5858 5858 5858 5859 5859 5860 5859 5858 5858 5859 5859 5860 5860 5859 5859 5860 5861 5862 5862 5863 5863 5863 5863 5864 5864 5864 5864 5864 5864 5864 5863 5863 5863 5862
5843 5844 5845 5846 5847 5848 5849 5850 5851 5852 5853 5853 5854 5854 5855 5855 5854 5854 5854 5854 5855 5856 5855 5855 5854 5854 5855 5856 5857 5858 5858 5858 5858 5859 5859 5859 5859 5859 5859 5859 5858 5858 5857
5837 5838 5839 5840 5840 5841 5843 5843 5844 5846 5847 5847 5848 5848 5849 5849 5849 5849 5850 5850 5850 5850 5850 5850 5850 5849 5849 5850 5851 5852 5852 5852 5853 5854 5853 5853 5853 5853 5853 5853 5853 5853 5852
5831 5832 5833 5834 5834 5834 5835 5836 5837 5838 5838 5839 5840 5841 5842 5842 5842 5843 5843 5844 5844 5844 5844 5845 5845 5845 5844 5844 5844 5845 5845 5846 5846 5847 5847 5847 5847 5847 5847 5848 5847 5847 5847
5825 5825 5826 5827 5827 5827 5827 5828 5829 5830 5830 5831 5831 5832 5833 5834 5835 5835 5836 5836 5837 5837 5838 5838 5838 5838 5839 5840 5839 5839 5839 5839 5839 5840 5840 5840 5841 5841 5841 5841 5841 5841 5841
5819 5819 5819 5820 5820 5821 5821 5821 5821 5821 5821 5822 5822 5823 5824 5825 5827 5828 5828 5828 5828 5829 5830 5831 5832 5831 5832 5833 5833 5834 5834 5833 5833 5833 5833 5833 5834 5834 5834 5834 5834 5834 5834
5814 5814 5814 5813 5814 5814 5815 5816 5816 5815 5815 5815 5815 5815 5814 5816 5817 5817 5819 5819 5820 5820 5821 5822 5823 5824 5824 5825 5826 5827 5828 5827 5827 5827 5826 5826 5826 5826 5826 5827 5827 5827 5827
5810 5809 5809 5808 5807 5806 5806 5807 5807 5808 5808 5809 5808 5808 5806 5807 5807 5808 5809 5810 5810 5811 5811 5812 5813 5813 5815 5816 5818 5819 5819 5820 5820 5820 5819 5819 5820 5820 5820 5820 5820 5819 5819
5803 5802 5801 5800 5800 5799 5799 5798 5798 5799 5800 5800 5800 5800 5798 5798 5799 5798 5799 5799 5801 5800 5800 5801 5802 5803 5805 5806 5808 5808 5809 5811 5812 5812 5811 5811 5811 5812 5812 5812 5812 5813 5812
5794 5794 5793 5792 5792 5790 5791 5792 5791 5790 5789 5790 5790 5789 5789 5788 5788 5788 5788 5789 5789 5788 5789 5790 5790 5792 5793 5795 5797 5798 5799 5800 5801 5802 5802 5803 5803 5803 5803 5804 5804 5804 5804
5785 5785 5785 5783 5783 5782 5781 5780 5780 5780 5779 5777 5776 5776 5776 5776 5776 5775 5776 5777 5777 5777 5778 5778 5779 5780 5782 5784 5785 5786 5788 5788 5788 5789 5792 5793 5794 5793 5792 5793 5794 5795 5795
5776 5775 5774 5773 5772 5771 5771 5769 5767 5766 5765 5765 5764 5762 5762 5762 5761 5761 5763 5763 5763 5764 5765 5767 5767 5768 5770 5772 5772 5773 5776 5777 5778 5779 5780 5781 5783 5783 5783 5783 5783 5785 5786
5762 5761 5760 5759 5757 5758 5757 5756 5755 5754 5752 5750 5749 5748 5747 5745 5744 5744 5746 5748 5748 5749 5751 5752 5753 5755 5757 5758 5758 5760 5763 5764 5765 5766 5767 5768 5769 5771 5772 5771 5772 5773 5775
5751 5749 5748 5747 5746 5744 5743 5743 5742 5740 5737 5736 5733 5732 5730 5729 5728 5727 5727 5729 5730 5732 5734 5737 5739 5741 5744 5744 5746 5746 5749 5752 5753 5754 5754 5756 5757 5758 5760 5761 5762 5762 5764
5742 5740 5737 5735 5734 5731 5729 5728 5726 5725 5723 5721 5718 5715 5712 5710 5709 5708 5708 5708 5710 5713 5717 5720 5722 5725 5728 5731 5735 5734 5736 5740 5735 5738 5741 5742 5744 5745 5748 5749 5751 5750 5751
5731 5727 5725 5722 5720 5717 5715 5713 5712 5711 5710 5707 5705 5701 5697 5693 5689 5686 5685 5685 5689 5692 5698 5703 5706 5708 5711 5716 5720 5723 5725 5727 5725 5722 5725 5728 5730 5731 5733 5737 5738 5736 5739
5721 5717 5714 5711 5709 5706 5704 5703 5703 5701 5698 5694 5691 5687 5681 5675 5669 5665 5664 5663 5667 5671 5678 5684 5689 5692 5694 5700 5704 5709 5715 5713 5708 5704 5710 5716 5719 5719 5722 5722 5724 5724 5725
5714 5711 5707 5704 5701 5698 5696 5694 5692 5689 5687 5682 5677 5671 5663 5655 5648 5644 5643 5644 5647 5651 5657 5662 5667 5672 5677 5682 5687 5691 5697 5693 5697 5694 5700 5701 5701 5706 5707 5708 5709 5709 5710